• In Germany
  • List of Countries
  • For 7 days
  • Water Temperature
  • Satellite Maps
  • Weather Map
  • Weather Widgets
  • user-avatar
    Login

    Hourly Weather Ladyzheno

    Today, 22 September, Saturday

    Time Temperature Precipitation Wind Pressure Humidity
    00:00 +16°C° 0 mm 2 mps 743 mmHg 86%
    01:00 +16°C° 0 mm 3 mps 743 mmHg 86%
    02:00 +16°C° 0 mm 2 mps 742 mmHg 88%
    03:00 +16°C° 0 mm 3 mps 742 mmHg 87%
    04:00 +14°C° 0 mm 3 mps 742 mmHg 87%
    05:00 +14°C° 0 mm 3 mps 742 mmHg 86%
    06:00 +17°C° 0 mm 4 mps 741 mmHg 80%
    07:00 +18°C° 0 mm 4 mps 741 mmHg 75%
    08:00 +19°C° 0 mm 5 mps 741 mmHg 68%
    09:00 +21°C° 0 mm 6 mps 740 mmHg 63%
    10:00 +22°C° 0 mm 6 mps 740 mmHg 57%
    11:00 +24°C° 0 mm 7 mps 740 mmHg 52%
    12:00 +24°C° 0 mm 7 mps 739 mmHg 50%
    13:00 +26°C° 0 mm 7 mps 739 mmHg 48%
    14:00 +27°C° 0 mm 5 mps 738 mmHg 46%
    15:00 +25°C° 0 mm 5 mps 738 mmHg 51%
    16:00 +23°C° 0 mm 4 mps 738 mmHg 56%
    17:00 +22°C° 0 mm 4 mps 737 mmHg 61%
    18:00 +19°C° 0.4 mm 4 mps 737 mmHg 70%
    19:00 +17°C° 0.4 mm 4 mps 738 mmHg 78%
    20:00 +14°C° 0.4 mm 5 mps 738 mmHg 87%
    21:00 +13°C° 0.7 mm 5 mps 738 mmHg 88%
    22:00 +12°C° 0.7 mm 5 mps 738 mmHg 89%
    23:00 +9°C° 0.7 mm 5 mps 738 mmHg 90%

    Tomorrow, 23 September, Sunday

    Time Temperature Precipitation Wind Pressure Humidity
    00:00 +9°C° 1.9 mm 5 mps 738 mmHg 91%
    01:00 +8°C° 1.9 mm 4 mps 738 mmHg 92%
    02:00 +7°C° 1.9 mm 4 mps 738 mmHg 93%
    03:00 +8°C° 0.5 mm 4 mps 738 mmHg 93%
    04:00 +8°C° 0.5 mm 4 mps 738 mmHg 93%
    05:00 +9°C° 0.5 mm 3 mps 738 mmHg 93%
    06:00 +8°C° 0 mm 4 mps 739 mmHg 92%
    07:00 +8°C° 0 mm 4 mps 739 mmHg 91%
    08:00 +10°C° 0 mm 4 mps 739 mmHg 90%
    09:00 +11°C° 0 mm 4 mps 739 mmHg 84%
    10:00 +11°C° 0 mm 4 mps 739 mmHg 79%
    11:00 +12°C° 0 mm 4 mps 739 mmHg 74%
    12:00 +13°C° 0.1 mm 4 mps 739 mmHg 69%
    13:00 +14°C° 0.1 mm 5 mps 739 mmHg 65%
    14:00 +14°C° 0.1 mm 5 mps 739 mmHg 60%
    15:00 +14°C° 0.1 mm 4 mps 739 mmHg 64%
    16:00 +13°C° 0.1 mm 4 mps 739 mmHg 68%
    17:00 +12°C° 0.1 mm 3 mps 739 mmHg 71%
    18:00 +11°C° 0.1 mm 3 mps 739 mmHg 76%
    19:00 +10°C° 0.1 mm 3 mps 739 mmHg 80%
    20:00 +9°C° 0.1 mm 3 mps 739 mmHg 84%
    21:00 +8°C° 0 mm 3 mps 739 mmHg 85%
    22:00 +8°C° 0 mm 3 mps 739 mmHg 87%
    23:00 +8°C° 0 mm 3 mps 739 mmHg 88%

    Day after tomorrow, 24 September, Monday

    Time Temperature Precipitation Wind Pressure Humidity
    00:00 +8°C° 0 mm 2 mps 738 mmHg 87%
    01:00 +8°C° 0 mm 2 mps 738 mmHg 86%
    02:00 +8°C° 0 mm 2 mps 738 mmHg 86%
    03:00 +8°C° 0.2 mm 3 mps 737 mmHg 86%
    04:00 +8°C° 0.2 mm 3 mps 737 mmHg 87%
    05:00 +7°C° 0.2 mm 4 mps 736 mmHg 88%
    06:00 +7°C° 0.7 mm 4 mps 735 mmHg 89%
    07:00 +8°C° 0.7 mm 5 mps 735 mmHg 90%
    08:00 +8°C° 0.7 mm 6 mps 734 mmHg 90%
    09:00 +8°C° 2.2 mm 6 mps 733 mmHg 91%
    10:00 +8°C° 2.2 mm 7 mps 732 mmHg 91%
    11:00 +8°C° 2.2 mm 7 mps 731 mmHg 91%
    12:00 +8°C° 1.8 mm 7 mps 729 mmHg 92%
    13:00 +8°C° 1.8 mm 6 mps 728 mmHg 92%
    14:00 +9°C° 1.8 mm 6 mps 726 mmHg 93%
    15:00 +9°C° 1.9 mm 6 mps 725 mmHg 92%
    16:00 +10°C° 1.9 mm 7 mps 725 mmHg 92%
    17:00 +11°C° 1.9 mm 7 mps 724 mmHg 91%
    18:00 +9°C° 0.4 mm 8 mps 724 mmHg 90%
    19:00 +7°C° 0.4 mm 8 mps 725 mmHg 89%
    20:00 +6°C° 0.4 mm 9 mps 726 mmHg 88%
    21:00 +6°C° 0 mm 9 mps 727 mmHg 88%
    22:00 +6°C° 0 mm 8 mps 728 mmHg 87%
    23:00 +6°C° 0 mm 8 mps 729 mmHg 86%

    25 September, Tuesday

    Time Temperature Precipitation Wind Pressure Humidity
    00:00 +6°C° 0.1 mm 8 mps 730 mmHg 86%
    01:00 +6°C° 0.1 mm 7 mps 730 mmHg 86%
    02:00 +6°C° 0.1 mm 7 mps 731 mmHg 86%
    03:00 +5°C° 0.1 mm 7 mps 732 mmHg 86%
    04:00 +5°C° 0.1 mm 7 mps 733 mmHg 85%
    05:00 +4°C° 0.1 mm 7 mps 733 mmHg 84%
    06:00 +4°C° 0 mm 7 mps 734 mmHg 83%
    07:00 +4°C° 0 mm 7 mps 735 mmHg 83%
    08:00 +4°C° 0 mm 7 mps 735 mmHg 82%
    09:00 +4°C° 0 mm 7 mps 736 mmHg 80%
    10:00 +4°C° 0 mm 7 mps 736 mmHg 78%
    11:00 +4°C° 0 mm 7 mps 737 mmHg 77%
    12:00 +5°C° 0 mm 7 mps 738 mmHg 75%
    13:00 +5°C° 0 mm 7 mps 738 mmHg 74%
    14:00 +5°C° 0 mm 7 mps 739 mmHg 72%
    15:00 +5°C° 0 mm 6 mps 739 mmHg 72%
    16:00 +6°C° 0 mm 5 mps 740 mmHg 71%
    17:00 +6°C° 0 mm 5 mps 740 mmHg 71%
    18:00 +5°C° 0 mm 5 mps 741 mmHg 72%
    19:00 +5°C° 0 mm 5 mps 742 mmHg 74%
    20:00 +3°C° 0 mm 5 mps 742 mmHg 75%
    21:00 +2°C° 0 mm 5 mps 743 mmHg 76%
    22:00 +2°C° 0 mm 5 mps 744 mmHg 76%
    23:00 +3°C° 0 mm 4 mps 744 mmHg 77%

    26 September, Wednesday

    Time Temperature Precipitation Wind Pressure Humidity
    00:00 +1°C° 0 mm 4 mps 745 mmHg 77%
    01:00 +1°C° 0 mm 4 mps 746 mmHg 77%
    02:00 +1°C° 0 mm 4 mps 746 mmHg 76%
    03:00 0°C° 0 mm 4 mps 747 mmHg 78%
    04:00 0°C° 0 mm 4 mps 747 mmHg 79%
    05:00 -1°C° 0 mm 4 mps 748 mmHg 80%
    06:00 0°C° 0 mm 4 mps 748 mmHg 77%
    07:00 +1°C° 0 mm 4 mps 748 mmHg 75%
    08:00 +3°C° 0 mm 4 mps 748 mmHg 73%
    09:00 +5°C° 0 mm 5 mps 748 mmHg 68%
    10:00 +7°C° 0 mm 5 mps 748 mmHg 62%
    11:00 +9°C° 0 mm 6 mps 748 mmHg 57%
    12:00 +9°C° 0 mm 6 mps 748 mmHg 58%
    13:00 +10°C° 0 mm 6 mps 747 mmHg 59%
    14:00 +10°C° 0 mm 6 mps 747 mmHg 60%
    15:00 +10°C° 0 mm 6 mps 747 mmHg 64%
    16:00 +9°C° 0 mm 5 mps 746 mmHg 68%
    17:00 +9°C° 0 mm 5 mps 746 mmHg 72%
    18:00 +8°C° 0.1 mm 5 mps 746 mmHg 75%
    19:00 +8°C° 0.1 mm 6 mps 745 mmHg 78%
    20:00 +6°C° 0.1 mm 7 mps 745 mmHg 82%
    21:00 +6°C° 0.1 mm 7 mps 744 mmHg 81%
    22:00 +6°C° 0.1 mm 7 mps 744 mmHg 80%
    23:00 +5°C° 0.1 mm 7 mps 743 mmHg 79%

    27 September, Thursday

    Time Temperature Precipitation Wind Pressure Humidity
    00:00 +5°C° 0.1 mm 8 mps 742 mmHg 79%
    01:00 +5°C° 0.1 mm 8 mps 742 mmHg 78%
    02:00 +5°C° 0.1 mm 8 mps 741 mmHg 77%
    03:00 +5°C° 0.3 mm 8 mps 740 mmHg 80%
    04:00 +5°C° 0.3 mm 8 mps 740 mmHg 82%
    05:00 +5°C° 0.3 mm 8 mps 739 mmHg 85%
    06:00 +5°C° 0.2 mm 8 mps 739 mmHg 86%
    07:00 +5°C° 0.2 mm 8 mps 739 mmHg 87%
    08:00 +6°C° 0.2 mm 8 mps 738 mmHg 88%
    09:00 +6°C° 0.8 mm 8 mps 738 mmHg 89%
    10:00 +6°C° 0.8 mm 7 mps 738 mmHg 90%
    11:00 +6°C° 0.8 mm 7 mps 737 mmHg 91%
    12:00 +6°C° 0.7 mm 7 mps 737 mmHg 90%
    13:00 +8°C° 0.7 mm 7 mps 737 mmHg 90%
    14:00 +8°C° 0.7 mm 7 mps 736 mmHg 90%
    15:00 +8°C° 0.5 mm 7 mps 736 mmHg 90%
    16:00 +8°C° 0.5 mm 7 mps 735 mmHg 90%
    17:00 +9°C° 0.5 mm 7 mps 735 mmHg 90%
    18:00 +9°C° 0.4 mm 7 mps 735 mmHg 90%
    19:00 +10°C° 0.4 mm 8 mps 735 mmHg 89%
    20:00 +10°C° 0.4 mm 8 mps 735 mmHg 88%
    21:00 +10°C° 0.2 mm 7 mps 735 mmHg 88%
    22:00 +9°C° 0.2 mm 7 mps 735 mmHg 87%
    23:00 +9°C° 0.2 mm 6 mps 735 mmHg 86%
    Show more